Location: Newark
(50.4348°N, 30.5552°E)
Time: 02:02:56
(UTC+00:00)

Transit 2A Rocket - Pass Details

Date: 30 January 2020
Orbit: 591 x 912 km, 66.7° (Epoch: 25 February)

Event Time Altitude Azimuth Distance (km) Brightness Sun altitude
Exits shadow 04:08:29 21° 304° (WNW) 1,384 5.8 -14.0°
Maximum altitude 04:09:37 23° 327° (NNW) 1,308 5.8 -13.8°
Drops below altitude 10° 04:13:12 10° 20° (NNE) 2,006 7.3 -13.3°
Sets 04:15:58 0° 35° (NE) 2,961 8.4 -12.9°
